Regional Weather Roundup
Issued by NWS Sterling, VA

Home | Current Version | Previous Version | Text Only | Print | Product List | Glossary Off
Versions: 1 2 3 4 5 6 7 8 9 10 11 12 13 14 15 16 17 18 19 20 21 22 23 24 25 26 27 28

000
ASUS41 KLWX 211310
RWRLWX

REGIONAL WEATHER ROUNDUP
NATIONAL WEATHER SERVICE BALTIMORE MD/WASHINGTON DC
800 AM EST SAT JAN 21 2017

Note: "FAIR" indicates few or no clouds below 12,000 feet
with no significant weather and/or obstructions to visibility.
 TC=TEMPERATURE CELSIUS

 * =Non NWS site. Station does not report precipitation (e.g. rain,
    snow, etc.), thunder, or fog.

DCZ001-MDZ009-015-VAZ040>042-051-053>054-211400-
WASHINGTON METRO

CITY           SKY/WX    TMP DP  RH WIND       PRES   REMARKS
WASHINGTON NAT CLOUDY    48  47  96 S5        29.92S
DULLES         FOG       47  45  93 CALM      29.91S VSB 1/8
ANDREWS AFB    CLOUDY    46  46  99 SW5       29.90S FOG
FT BELVOIR     CLOUDY    46  46 100 SE3       29.91F FOG
QUANTICO       FOG       47  47 100 CALM      29.93R VSB 1/4
COLLEGE PARK*  CLOUDY    45  45 100 CALM      29.91S
LEESBURG*      CLOUDY    48  48 100 CALM      29.91F FOG
MANASSAS*      FOG      N/A N/A N/A CALM      29.92R VSB 1
GAITHERSBURG*  CLOUDY    46  43  87 SW3       29.94S

$$

MDZ006>007-011-014-211400-
BALTIMORE METRO

CITY           SKY/WX    TMP DP  RH WIND       PRES   REMARKS
BWI AIRPORT    DRZL/FOG  46  46 100 S5        29.91S VSB 3/4
MD SCIENCE CTR   N/A     46  44  93 MISG      29.92S
MARTIN STATE   FOG       43  43 100 CALM      29.94R VSB 1/4
ANNAPOLIS      FOG       44  42  93 CALM      29.92S VSB 1/4
FORT MEADE*    CLOUDY    45  45 100 CALM      29.93S

$$

MDZ012-015-019>023-211400-
MARYLAND EASTERN SHORE

CITY           SKY/WX    TMP DP  RH WIND       PRES   REMARKS
OCEAN CITY     CLOUDY    46  46 100 CALM      29.93R FOG
SALISBURY      FOG       46  46 100 SW6       29.92F VSB 1
BAY BRIDGE AP* CLOUDY    45  45 100 CALM      29.92S FOG
CAMBRIDGE*     CLOUDY    43  43 100 CALM      29.92S
EASTON*        FOG       46  45  93 SW7       29.96R VSB 1

$$

MDZ017>025-211400-
SOUTHERN MARYLAND

CITY           SKY/WX    TMP DP  RH WIND       PRES   REMARKS
PATUXENT RIVER FOG       45  45 100 CALM      29.92S VSB 1
ST INIGOES     FOG       46  45  96 S3        29.92S VSB 1
LEONARDTOWN*   CLOUDY    45  45 100 CALM      29.94R

$$

MDZ003>005-211400-
NORTH CENTRAL MARYLAND

CITY           SKY/WX    TMP DP  RH WIND       PRES   REMARKS
FREDERICK*     FOG       43  43 100 CALM      29.94R VSB 1/4
HAGERSTOWN APT FOG       42  40  92 CALM      29.88S VSB<1/4
WESTMINSTER*   FOG       43  43 100 CALM      29.89F VSB 1/4

$$

MDZ501>502-211400-
WESTERN MARYLAND

CITY           SKY/WX    TMP DP  RH WIND       PRES   REMARKS
OAKLAND*         N/A     45  43  93 S5        29.85S
CUMBERLAND*    CLOUDY    41  41 100 CALM      29.92F VSB<1/4

$$

VAZ025>031-211400-
SHENANDOAH VALLEY

CITY           SKY/WX    TMP DP  RH WIND       PRES   REMARKS
WINCHESTER*    FOG       39  37  93 CALM      29.89F VSB<1/4
FRONT ROYAL*   CLOUDY    39  39 100 CALM      29.88F VSB<1/4
LURAY*         FOG       43  43 100 CALM      29.88F VSB<1/4
NEW MARKET*    CLOUDY    43  42  96 CALM      29.87F VSB<1/4
STAUNTON*      FOG       42  42 100 CALM      29.90S VSB 1/4
WAYNESBORO*    MOSUNNY   39  38  96 CALM      29.88S

$$

WVZ021-048>050-054>055-211400-
EASTERN WEST VIRGINIA PANHANDLE

CITY           SKY/WX    TMP DP  RH WIND       PRES   REMARKS
MARTINSBURG    FOG       41  40  96 CALM      29.88F VSB<1/4
PETERSBURG*    FOG       36  36  99 CALM      29.89F VSB<1/4

$$

VAZ036>039-050-211400-
CENTRAL FOOTHILLS

CITY           SKY/WX    TMP DP  RH WIND       PRES   REMARKS
CHARLOTTESVILL FOG       48  47  96 CALM      29.89S VSB 1/4
CULPEPER*      CLOUDY    48  48 100 CALM      29.91F FOG
ORANGE*        FOG       46  46 100 CALM      29.92F VSB 3/4
GORDONSVILLE*  FOG       47  47 100 MISG      29.90F VSB 1/4
WARRENTON*     CLOUDY    48  46  91 CALM      29.90S FOG

$$

VAZ055>057-211400-
NORTH AND CENTRAL PIEDMONT

CITY           SKY/WX    TMP DP  RH WIND       PRES   REMARKS
FREDERICKSBRG* CLOUDY    48  48 100 CALM      29.91S FOG
STAFFORD*      FOG       47  47 100 CALM      29.95S VSB 3/4

$$

NCZ024-NYZ072-PAZ021-071-VAZ022-071-211400-
OTHER REGIONAL OBSERVATIONS

CITY           SKY/WX    TMP DP  RH WIND       PRES   REMARKS
NEW YORK CITY  CLOUDY    42  41  96 VRB3      29.90F FOG
PHILADELPHIA   FOG       43  43 100 W7        29.92R VSB 1/8
PITTSBURGH     FOG       43  43 100 SE3       29.79F VSB 1/4
ROANOKE        FOG       44  44 100 CALM      29.92F VSB 1/4
RICHMOND       FOG       46  46 100 SW8       29.93R VSB 1/4
RALEIGH        FOG       51  51 100 CALM      29.93R VSB 1/8

$$

ANZ530>537-211400-
MARINE OBSERVATIONS

STATION/POSITION TIME  TEMP    WIND        PRES
                       AIR SEA DIR/SP/G
                 (UTC) (F)     (DEG/KT/KT) (MB)
THOMAS PT LIGHT  1200   43 39  210/  5/  5   N/A
BALT KEY BRIDGE  1248   42     130/  2/  2 1013.2R
COVE POINT       1248   44     200/  4/  5 1013.8S
LEWISETTA        1248   45 44  230/  4/  5 1012.9F
SOLOMONS ISLAND  1248   45 41  220/  1/  3   N/A
PINEY POINT      1248          180/  4/  4   N/A

$$





USA.gov is the U.S. government's official web portal to all federal, state and local government web resources and services.